• în Republica Moldova
  • Lista ţărilor
  • Pe 7 zile
  • Temperatura apei
  • Hartă satelitară
  • Meteo pe hartă
  • Widget-uri
  • user-avatar
    Intrare

    Meteo pe oră la Igls

    Astăzi, 26 Iunie, Luni

    Timp Temperatura Precipitaţii Vânt Presiune Umiditate
    00:00 +13°C° 0 mm 1 m/s 685 mmHg 91%
    01:00 +13°C° 0 mm 1 m/s 685 mmHg 91%
    02:00 +12°C° 0 mm 1 m/s 684 mmHg 90%
    03:00 +12°C° 0 mm 1 m/s 684 mmHg 89%
    04:00 +11°C° 0 mm 1 m/s 684 mmHg 88%
    05:00 +14°C° 0 mm 1 m/s 684 mmHg 82%
    06:00 +16°C° 0 mm 1 m/s 685 mmHg 76%
    07:00 +18°C° 0 mm 0 m/s 685 mmHg 69%
    08:00 +20°C° 0 mm 0 m/s 686 mmHg 60%
    09:00 +22°C° 0 mm 0 m/s 686 mmHg 51%
    10:00 +27°C° 0 mm 1 m/s 686 mmHg 41%
    11:00 +28°C° 0 mm 1 m/s 686 mmHg 40%
    12:00 +28°C° 0 mm 1 m/s 686 mmHg 39%
    13:00 +29°C° 0 mm 1 m/s 686 mmHg 37%
    14:00 +29°C° 0 mm 1 m/s 685 mmHg 41%
    15:00 +28°C° 0 mm 2 m/s 685 mmHg 44%
    16:00 +27°C° 0 mm 2 m/s 684 mmHg 48%
    17:00 +26°C° 0,3 mm 2 m/s 684 mmHg 59%
    18:00 +24°C° 0,3 mm 1 m/s 684 mmHg 70%
    19:00 +23°C° 0,3 mm 1 m/s 683 mmHg 81%
    20:00 +21°C° 0,9 mm 1 m/s 683 mmHg 85%
    21:00 +20°C° 0,9 mm 1 m/s 683 mmHg 89%
    22:00 +18°C° 0,9 mm 1 m/s 683 mmHg 94%
    23:00 +18°C° 0,8 mm 1 m/s 683 mmHg 94%

    Mâine, 27 Iunie, Marţi

    Timp Temperatura Precipitaţii Vânt Presiune Umiditate
    00:00 +18°C° 0,8 mm 1 m/s 683 mmHg 95%
    01:00 +18°C° 0,8 mm 1 m/s 683 mmHg 96%
    02:00 +18°C° 0,3 mm 1 m/s 683 mmHg 96%
    03:00 +16°C° 0,3 mm 1 m/s 683 mmHg 96%
    04:00 +16°C° 0,3 mm 1 m/s 682 mmHg 96%
    05:00 +18°C° 0,4 mm 1 m/s 682 mmHg 95%
    06:00 +18°C° 0,4 mm 1 m/s 682 mmHg 94%
    07:00 +19°C° 0,4 mm 1 m/s 682 mmHg 92%
    08:00 +21°C° 0,2 mm 1 m/s 683 mmHg 83%
    09:00 +23°C° 0,2 mm 1 m/s 683 mmHg 73%
    10:00 +25°C° 0,2 mm 1 m/s 683 mmHg 64%
    11:00 +25°C° 0,5 mm 1 m/s 683 mmHg 65%
    12:00 +26°C° 0,5 mm 1 m/s 683 mmHg 66%
    13:00 +26°C° 0,5 mm 2 m/s 682 mmHg 66%
    14:00 +26°C° 1 mm 2 m/s 682 mmHg 70%
    15:00 +25°C° 1 mm 2 m/s 682 mmHg 73%
    16:00 +25°C° 1 mm 2 m/s 681 mmHg 77%
    17:00 +24°C° 0,9 mm 1 m/s 681 mmHg 80%
    18:00 +23°C° 0,9 mm 1 m/s 681 mmHg 83%
    19:00 +23°C° 0,9 mm 1 m/s 681 mmHg 87%
    20:00 +21°C° 0,8 mm 1 m/s 681 mmHg 89%
    21:00 +20°C° 0,8 mm 1 m/s 680 mmHg 92%
    22:00 +18°C° 0,8 mm 1 m/s 680 mmHg 95%
    23:00 +17°C° 0,3 mm 2 m/s 680 mmHg 95%

    Poimâine, 28 Iunie, Miercuri

    Timp Temperatura Precipitaţii Vânt Presiune Umiditate
    00:00 +17°C° 0,3 mm 2 m/s 679 mmHg 95%
    01:00 +16°C° 0,3 mm 2 m/s 679 mmHg 95%
    02:00 +16°C° 0 mm 2 m/s 679 mmHg 95%
    03:00 +16°C° 0 mm 2 m/s 678 mmHg 95%
    04:00 +16°C° 0 mm 2 m/s 678 mmHg 94%
    05:00 +17°C° 0 mm 2 m/s 678 mmHg 92%
    06:00 +18°C° 0 mm 2 m/s 678 mmHg 89%
    07:00 +19°C° 0 mm 2 m/s 678 mmHg 86%
    08:00 +21°C° 0,2 mm 2 m/s 678 mmHg 79%
    09:00 +23°C° 0,2 mm 2 m/s 678 mmHg 71%
    10:00 +25°C° 0,2 mm 2 m/s 678 mmHg 63%
    11:00 +25°C° 1,3 mm 2 m/s 678 mmHg 65%
    12:00 +25°C° 1,3 mm 3 m/s 678 mmHg 67%
    13:00 +25°C° 1,3 mm 3 m/s 678 mmHg 69%
    14:00 +24°C° 1,4 mm 3 m/s 677 mmHg 72%
    15:00 +24°C° 1,4 mm 3 m/s 677 mmHg 75%
    16:00 +23°C° 1,4 mm 2 m/s 676 mmHg 78%
    17:00 +21°C° 2,1 mm 2 m/s 676 mmHg 83%
    18:00 +20°C° 2,1 mm 2 m/s 675 mmHg 88%
    19:00 +20°C° 2,1 mm 1 m/s 674 mmHg 93%
    20:00 +18°C° 1,4 mm 2 m/s 674 mmHg 94%
    21:00 +17°C° 1,4 mm 2 m/s 674 mmHg 95%
    22:00 +16°C° 1,4 mm 2 m/s 673 mmHg 96%
    23:00 +16°C° 0,9 mm 2 m/s 673 mmHg 96%

    29 Iunie, Joi

    Timp Temperatura Precipitaţii Vânt Presiune Umiditate
    00:00 +15°C° 0,9 mm 2 m/s 673 mmHg 96%
    01:00 +15°C° 0,9 mm 1 m/s 672 mmHg 96%
    02:00 +14°C° 0,7 mm 1 m/s 672 mmHg 96%
    03:00 +14°C° 0,7 mm 2 m/s 672 mmHg 96%
    04:00 +13°C° 0,7 mm 2 m/s 672 mmHg 97%
    05:00 +14°C° 0,5 mm 1 m/s 672 mmHg 96%
    06:00 +15°C° 0,5 mm 1 m/s 672 mmHg 94%
    07:00 +15°C° 0,5 mm 1 m/s 673 mmHg 93%
    08:00 +16°C° 1 mm 1 m/s 673 mmHg 92%
    09:00 +16°C° 1 mm 1 m/s 673 mmHg 90%
    10:00 +16°C° 1 mm 1 m/s 674 mmHg 89%
    11:00 +16°C° 1,7 mm 1 m/s 674 mmHg 90%
    12:00 +16°C° 1,7 mm 2 m/s 674 mmHg 90%
    13:00 +16°C° 1,7 mm 2 m/s 674 mmHg 91%
    14:00 +16°C° 2,7 mm 2 m/s 674 mmHg 92%
    15:00 +15°C° 2,7 mm 2 m/s 674 mmHg 92%
    16:00 +15°C° 2,7 mm 2 m/s 675 mmHg 93%
    17:00 +14°C° 2,4 mm 2 m/s 675 mmHg 94%
    18:00 +13°C° 2,4 mm 1 m/s 676 mmHg 95%
    19:00 +13°C° 2,4 mm 1 m/s 676 mmHg 96%
    20:00 +12°C° 0,9 mm 1 m/s 676 mmHg 96%
    21:00 +12°C° 0,9 mm 1 m/s 677 mmHg 97%
    22:00 +11°C° 0,9 mm 1 m/s 677 mmHg 97%
    23:00 +11°C° 0,4 mm 1 m/s 678 mmHg 96%

    30 Iunie, Vineri

    Timp Temperatura Precipitaţii Vânt Presiune Umiditate
    00:00 +11°C° 0,4 mm 1 m/s 678 mmHg 96%
    01:00 +11°C° 0,4 mm 1 m/s 678 mmHg 96%
    02:00 +10°C° 0,1 mm 1 m/s 678 mmHg 95%
    03:00 +9°C° 0,1 mm 1 m/s 678 mmHg 94%
    04:00 +9°C° 0,1 mm 1 m/s 678 mmHg 94%
    05:00 +10°C° 0 mm 1 m/s 679 mmHg 92%
    06:00 +12°C° 0 mm 1 m/s 679 mmHg 89%
    07:00 +13°C° 0 mm 1 m/s 680 mmHg 87%
    08:00 +15°C° 0,1 mm 1 m/s 680 mmHg 78%
    09:00 +16°C° 0,1 mm 1 m/s 681 mmHg 70%
    10:00 +18°C° 0,1 mm 2 m/s 681 mmHg 61%
    11:00 +18°C° 0,6 mm 2 m/s 681 mmHg 63%
    12:00 +18°C° 0,6 mm 2 m/s 681 mmHg 64%
    13:00 +19°C° 0,6 mm 2 m/s 681 mmHg 66%
    14:00 +18°C° 1,3 mm 2 m/s 681 mmHg 69%
    15:00 +18°C° 1,3 mm 2 m/s 681 mmHg 72%
    16:00 +17°C° 1,3 mm 2 m/s 681 mmHg 75%
    17:00 +16°C° 1,2 mm 2 m/s 681 mmHg 79%
    18:00 +15°C° 1,2 mm 1 m/s 681 mmHg 83%
    19:00 +14°C° 1,2 mm 1 m/s 682 mmHg 88%
    20:00 +13°C° 0,7 mm 1 m/s 682 mmHg 90%
    21:00 +11°C° 0,7 mm 1 m/s 682 mmHg 93%
    22:00 +10°C° 0,7 mm 1 m/s 682 mmHg 96%
    23:00 +9°C° 0,1 mm 1 m/s 682 mmHg 95%

    1 Iulie, Sâmbătă

    Timp Temperatura Precipitaţii Vânt Presiune Umiditate
    00:00 +9°C° 0,1 mm 1 m/s 681 mmHg 95%
    01:00 +8°C° 0,1 mm 1 m/s 681 mmHg 94%
    02:00 +8°C° 0 mm 1 m/s 681 mmHg 93%
    03:00 +7°C° 0 mm 1 m/s 681 mmHg 93%
    04:00 +7°C° 0 mm 1 m/s 681 mmHg 92%
    05:00 +9°C° 0 mm 1 m/s 681 mmHg 87%
    06:00 +11°C° 0 mm 0 m/s 682 mmHg 82%
    07:00 +13°C° 0 mm 0 m/s 682 mmHg 76%
    08:00 +15°C° 0,2 mm 0 m/s 683 mmHg 71%
    09:00 +18°C° 0,2 mm 1 m/s 683 mmHg 66%
    10:00 +20°C° 0,2 mm 1 m/s 683 mmHg 61%
    11:00 +20°C° 0,6 mm 1 m/s 683 mmHg 63%
    12:00 +20°C° 0,6 mm 1 m/s 683 mmHg 66%
    13:00 +20°C° 0,6 mm 1 m/s 683 mmHg 68%
    14:00 +18°C° 1 mm 2 m/s 683 mmHg 73%
    15:00 +18°C° 1 mm 2 m/s 683 mmHg 77%
    16:00 +17°C° 1 mm 2 m/s 682 mmHg 81%
    17:00 +16°C° 0,7 mm 2 m/s 683 mmHg 85%
    18:00 +16°C° 0,7 mm 1 m/s 683 mmHg 89%
    19:00 +15°C° 0,7 mm 1 m/s 683 mmHg 94%
    20:00 +14°C° 0,5 mm 1 m/s 684 mmHg 95%
    21:00 +13°C° 0,5 mm 1 m/s 684 mmHg 96%
    22:00 +12°C° 0,5 mm 1 m/s 684 mmHg 97%
    23:00 +12°C° 0,7 mm 1 m/s 685 mmHg 97%
    Arată mai mult